Beaufort, NC

6:05 AM EDT on October 16, 2019 (GMT -0400)
Smith

Weather History for KMRH - May, 2019

Change the Weather History Date:

Tuesday, May 21, 2019

  Actual Average Record
Temperature  
Mean Temperature 78 °F -  
Max Temperature 87 °F 79 °F 87 °F (1951)
Min Temperature 70 °F 63 °F 42 °F (2002)
Cooling Degree Days 12    
Growing Degree Days 28 (Base 50)    
Moisture  
Dew Point 67 °F    
Average Humidity 75    
Maximum Humidity 87    
Minimum Humidity 57    
Precipitation  
Precipitation 0.00 in - - ()
Sea Level Pressure  
Sea Level Pressure 29.97 in    
Wind  
Wind Speed 10 mph (South)    
Max Wind Speed 13 mph    
Max Gust Speed 21 mph    
Visibility 10 miles    
Events      
Averages and records for this station are not official NWS values.
T = Trace of Precipitation, MM = Missing Value Source: NWS Daily Summary

Daily Weather History Graph

Daily Weather History Graph

Search for Another Location

Airport or City:

Astronomy

May. 21, 2019 Rise Set
Actual Time 5:59 AM EDT 8:07 PM EDT
Civil Twilight 5:31 AM EDT 8:35 PM EDT
Nautical Twilight 4:56 AM EDT 9:10 PM EDT
Astronomical Twilight 4:19 AM EDT 9:47 PM EDT
Moon 10:59 PM EDT (5/21) 8:15 AM EDT (5/21)
Length of Visible Light 15h 04m
Length of Day
14h 07m
Waning Gibbous, 91% of the Moon is Illuminated
May 21
Waning Gibbous
May 26
Last Quarter
Jun 3
New
Jun 10
First Quarter
Jun 17
Full

Hourly Weather History & Observations

Time (EDT) Temp. Heat Index Dew Point Humidity Pressure Visibility Wind Dir Wind Speed Gust Speed Precip Events Conditions
12:58 AM 75.0 °F - 69.1 °F 82% 29.96 in 10.0 mi WSW 9.2 mph - N/A   Clear
1:58 AM 73.9 °F - 70.0 °F 87% 29.94 in 10.0 mi SW 8.1 mph - N/A   Clear
2:58 AM 73.9 °F - 70.0 °F 87% 29.93 in 10.0 mi SSW 9.2 mph - N/A   Clear
3:58 AM 73.9 °F - 70.0 °F 87% 29.93 in 10.0 mi SW 10.4 mph - N/A   Clear
4:58 AM 73.9 °F - 70.0 °F 87% 29.94 in 10.0 mi SW 10.4 mph - N/A   Mostly Cloudy
5:58 AM 75.0 °F - 70.0 °F 84% 29.94 in 10.0 mi SW 11.5 mph - N/A   Overcast
6:35 AM 75.0 °F - 70.0 °F 84% 29.94 in 10.0 mi SW 9.2 mph - N/A   Mostly Cloudy
6:48 AM 75.0 °F - 71.1 °F 87% 29.94 in 10.0 mi SW 8.1 mph - N/A   Mostly Cloudy
6:58 AM 75.0 °F - 70.0 °F 84% 29.95 in 10.0 mi SW 10.4 mph - N/A   Mostly Cloudy
7:58 AM 75.9 °F - 71.1 °F 85% 29.96 in 10.0 mi WSW 9.2 mph - N/A   Mostly Cloudy
8:08 AM 77.0 °F - 71.1 °F 82% 29.96 in 10.0 mi WSW 12.7 mph - N/A   Mostly Cloudy
8:20 AM 77.0 °F - 71.1 °F 82% 29.96 in 10.0 mi WSW 8.1 mph - N/A   Overcast
8:49 AM 78.1 °F - 71.1 °F 79% 29.96 in 10.0 mi WSW 11.5 mph - N/A   Overcast
8:58 AM 78.1 °F - 71.1 °F 79% 29.96 in - North - - N/A   Unknown
9:58 AM - - - N/A% 29.97 in - North - - N/A   Unknown
10:58 AM - - - N/A% 29.97 in - North - - N/A   Unknown
11:58 AM - - - N/A% 29.97 in - North - - N/A   Unknown
12:58 PM 84.9 °F 88.2 °F 68.0 °F 57% 29.96 in 10.0 mi SSE 6.9 mph - N/A   Unknown
1:58 PM 82.9 °F 86.5 °F 69.1 °F 63% 29.95 in 10.0 mi SSW 6.9 mph - N/A   Partly Cloudy
2:58 PM 79.0 °F - 66.9 °F 66% 29.96 in 10.0 mi East 11.5 mph 20.7 mph N/A   Overcast
3:58 PM 79.0 °F - 64.9 °F 62% 29.95 in 10.0 mi East 12.7 mph - N/A   Clear
4:58 PM 77.0 °F - 63.0 °F 62% 29.96 in 10.0 mi East 11.5 mph - N/A   Clear
5:58 PM 77.0 °F - 63.0 °F 62% 29.96 in 10.0 mi ENE 12.7 mph - N/A   Clear
6:58 PM 75.0 °F - 60.1 °F 60% 29.98 in 10.0 mi East 10.4 mph - N/A   Clear
7:58 PM 73.0 °F - 59.0 °F 61% 30.01 in 10.0 mi East 10.4 mph - N/A   Clear
8:58 PM 72.0 °F - 59.0 °F 64% 30.03 in 10.0 mi East 8.1 mph - N/A   Partly Cloudy
9:58 PM 71.1 °F - 60.1 °F 68% 30.06 in 10.0 mi ENE 11.5 mph - N/A   Partly Cloudy
10:58 PM 71.1 °F - 61.0 °F 70% 30.09 in 10.0 mi ENE 11.5 mph - N/A   Mostly Cloudy
11:58 PM 70.0 °F - 60.1 °F 71% 30.10 in 10.0 mi NE 8.1 mph - N/A   Overcast